This is the latest recevied weather packets stored in our database for station/object 9A3SWO. If no packets are shown the sender has not sent any weather packets the latest 10 day(s).
| Time | Temp. | Humidity | Pressure | Rain* | Wind** | Luminosity | Snow |
|---|---|---|---|---|---|---|---|
| 1777635794 | 16.11° C | 36% | 1028.1 hPa | - | - | - | - |
| 1777635194 | 16.11° C | 38% | 1028.2 hPa | - | - | - | - |
| 1777634594 | 16.11° C | 37% | 1028.4 hPa | - | - | - | - |
| 1777633993 | 16.11° C | 36% | 1028.6 hPa | - | - | - | - |
| 1777633394 | 16.11° C | 37% | 1028.7 hPa | - | - | - | - |
| 1777632794 | 15.56° C | 37% | 1028.7 hPa | - | - | - | - |
| 1777632194 | 15.56° C | 36% | 1028.9 hPa | - | - | - | - |
| 1777631594 | 15.56° C | 36% | 1029 hPa | - | - | - | - |
| 1777630994 | 15.56° C | 39% | 1029.1 hPa | - | - | - | - |
| 1777630394 | 15.56° C | 38% | 1029.2 hPa | - | - | - | - |
| 1777629794 | 15.56° C | 38% | 1029.3 hPa | - | - | - | - |
| 1777629193 | 15° C | 38% | 1029.4 hPa | - | - | - | - |
| 1777628593 | 15° C | 38% | 1029.4 hPa | - | - | - | - |
| 1777627994 | 15° C | 37% | 1029.5 hPa | - | - | - | - |
| 1777627394 | 15° C | 37% | 1029.7 hPa | - | - | - | - |
| 1777626793 | 15° C | 35% | 1029.7 hPa | - | - | - | - |
| 1777626193 | 15° C | 34% | 1029.9 hPa | - | - | - | - |
| 1777625593 | 14.44° C | 32% | 1029.9 hPa | - | - | - | - |
| 1777624993 | 14.44° C | 33% | 1029.8 hPa | - | - | - | - |
| 1777624393 | 14.44° C | 34% | 1029.9 hPa | - | - | - | - |
| 1777623793 | 14.44° C | 33% | 1029.8 hPa | - | - | - | - |
| 1777623194 | 14.44° C | 34% | 1029.8 hPa | - | - | - | - |
| 1777622593 | 14.44° C | 35% | 1029.8 hPa | - | - | - | - |
| 1777621993 | 14.44° C | 36% | 1029.9 hPa | - | - | - | - |
| 1777621393 | 15° C | 40% | 1029.8 hPa | - | - | - | - |
* Rain since midnight (hover to see other rain measurements)
** Current wind speed in m/s (hover to see current wind gust speed)